sat.trackr.live / text

‹ back to catalog

STARLINK-37348

NORAD 68737 · 2026-082K

PAYLOAD ACTIVE UNKNOWN

§ Identity

Operator
Country
US
Launch date
2026-04-15
Launch site
AFWTR
Launch vehicle
Mass (kg)
RCS (m²)

Purposes: comms

External: N2YO · Heavens-Above · Gunter

§ Orbital elements

Epoch: 2026-05-25T04:48:19.247328Z

Period
92.34 min
Inclination
97.2845°
Eccentricity
0.0002130
Mean motion
15.59378284 rev/d
Perigee alt
388.0 km
Apogee alt
390.9 km
Semi-major
6,767.6 km
B*
-3.8018e-3
RAAN
8.8465°
Arg perigee
85.8286°
Mean anomaly
274.3214°
Rev number
616

§ Raw data

STARLINK-373481 68737U 26082K   26145.20022277 -.00289129  00000+0 -38018-2 0  99932 68737  97.2845   8.8465 0002130  85.8286 274.3214 15.59378284  6160

JSON: /api/v1/satellites/68737 · /tle

For live sub-satellite position, see the globe view (requires WebGL).

§ Visibility from observer

Set your observer location to see the next 7 days of passes ≥ 10°. The values pass through the URL so the page stays shareable.

No JS? Fill the form by hand. The geolocation button needs JavaScript.